Time,TemperatureF,DewpointF,PressureIn,WindDirection,WindDirectionDegrees,WindSpeedMPH,WindSpeedGustMPH,Humidity,HourlyPrecipIn,Conditions,Clouds,dailyrainin,SoftwareType,DateUTC
2013-11-09 00:23:00,36.0,30.0,30.29,ENE,78,0.0,0.0,78,0.00,,,0.00,,2013-11-09 05:23:00,
2013-11-09 00:43:00,35.0,29.0,30.29,ENE,78,0.0,0.0,79,0.00,,,0.00,,2013-11-09 05:43:00,
2013-11-09 00:53:00,35.0,30.0,30.29,ENE,78,0.0,0.0,81,0.00,,,0.00,,2013-11-09 05:53:00,
2013-11-09 01:23:00,34.0,29.0,30.29,ENE,78,0.0,0.0,82,0.00,,,0.00,,2013-11-09 06:23:00,
2013-11-09 01:43:00,34.0,29.0,30.29,ENE,78,0.0,0.0,83,0.00,,,0.00,,2013-11-09 06:43:00,
2013-11-09 01:54:00,34.0,30.0,30.29,ENE,78,0.0,0.0,84,0.00,,,0.00,,2013-11-09 06:54:00,
2013-11-09 02:22:00,34.0,30.0,30.30,ENE,78,0.0,0.0,85,0.00,,,0.00,,2013-11-09 07:22:00,
2013-11-09 02:53:00,34.0,30.0,30.30,ENE,78,0.0,0.0,85,0.00,,,0.00,,2013-11-09 07:53:00,
2013-11-09 03:21:00,34.0,30.0,30.31,ENE,78,0.0,0.0,86,0.00,,,0.00,,2013-11-09 08:21:00,
2013-11-09 03:42:00,34.0,30.0,30.31,ENE,78,0.0,0.0,85,0.00,,,0.00,,2013-11-09 08:42:00,
2013-11-09 03:52:00,34.0,30.0,30.31,ENE,78,0.0,0.0,85,0.00,,,0.00,,2013-11-09 08:52:00,
2013-11-09 04:22:00,34.0,30.0,30.32,ENE,78,0.0,0.0,86,0.00,,,0.00,,2013-11-09 09:22:00,
2013-11-09 04:53:00,33.0,29.0,30.31,ENE,78,0.0,0.0,85,0.00,,,0.00,,2013-11-09 09:53:00,
2013-11-09 05:23:00,33.0,29.0,30.31,ENE,78,0.0,0.0,86,0.00,,,0.00,,2013-11-09 10:23:00,
2013-11-09 05:52:00,33.0,29.0,30.32,ENE,78,0.0,0.0,86,0.00,,,0.00,,2013-11-09 10:52:00,
2013-11-09 06:22:00,33.0,30.0,30.32,ENE,78,0.0,0.0,88,0.00,,,0.00,,2013-11-09 11:22:00,
2013-11-09 06:42:00,33.0,30.0,30.32,ENE,78,0.0,0.0,88,0.00,,,0.00,,2013-11-09 11:42:00,
2013-11-09 06:52:00,33.0,30.0,30.32,ENE,78,0.0,0.0,87,0.00,,,0.00,,2013-11-09 11:52:00,
2013-11-09 07:22:00,32.0,29.0,30.32,ENE,78,0.0,0.0,87,0.00,,,0.00,,2013-11-09 12:22:00,
2013-11-09 07:52:00,32.0,29.0,30.33,ENE,78,0.0,0.0,88,0.00,,,0.00,,2013-11-09 12:52:00,
2013-11-09 08:22:00,32.0,29.0,30.34,ENE,78,0.0,0.0,89,0.00,,,0.00,,2013-11-09 13:22:00,
2013-11-09 08:42:00,32.0,30.0,30.34,ENE,78,0.0,0.0,91,0.00,,,0.00,,2013-11-09 13:42:00,
2013-11-09 08:52:00,33.0,31.0,30.34,ENE,78,0.0,0.0,92,0.00,,,0.00,,2013-11-09 13:52:00,
2013-11-09 09:22:00,34.0,32.0,30.35,ENE,78,0.0,0.0,92,0.00,,,0.00,,2013-11-09 14:22:00,
2013-11-09 09:42:00,35.0,33.0,30.35,ENE,78,0.0,0.0,92,0.00,,,0.00,,2013-11-09 14:42:00,
2013-11-09 09:52:00,36.0,33.0,30.35,NNE,30,0.0,1.0,89,0.00,,,0.00,,2013-11-09 14:52:00,
2013-11-09 10:22:00,41.0,34.0,30.35,West,275,0.0,2.0,77,0.00,,,0.00,,2013-11-09 15:22:00,
2013-11-09 10:54:00,47.0,36.0,30.35,WSW,257,1.0,4.0,65,0.00,,,0.00,,2013-11-09 15:54:00,
2013-11-09 11:24:00,52.0,36.0,30.35,WSW,257,0.0,3.0,54,0.00,,,0.00,,2013-11-09 16:24:00,
2013-11-09 11:43:00,53.0,35.0,30.35,West,279,1.0,4.0,51,0.00,,,0.00,,2013-11-09 16:43:00,
2013-11-09 11:53:00,54.0,35.0,30.34,WSW,249,1.0,3.0,49,0.00,,,0.00,,2013-11-09 16:53:00,
2013-11-09 12:24:00,57.0,36.0,30.34,SW,236,0.0,5.0,45,0.00,,,0.00,,2013-11-09 17:24:00,
2013-11-09 12:52:00,57.0,34.0,30.33,West,274,1.0,3.0,42,0.00,,,0.00,,2013-11-09 17:52:00,
2013-11-09 13:23:00,57.0,33.0,30.32,SW,236,1.0,4.0,40,0.00,,,0.00,,2013-11-09 18:23:00,
2013-11-09 13:52:00,56.0,33.0,30.31,West,276,1.0,3.0,41,0.00,,,0.00,,2013-11-09 18:52:00,
2013-11-09 14:23:00,55.0,32.0,30.31,SW,234,0.0,3.0,42,0.00,,,0.00,,2013-11-09 19:23:00,
2013-11-09 14:42:00,55.0,32.0,30.32,WSW,238,1.0,3.0,42,0.00,,,0.00,,2013-11-09 19:42:00,
2013-11-09 14:52:00,55.0,33.0,30.32,West,276,1.0,4.0,43,0.00,,,0.00,,2013-11-09 19:52:00,
2013-11-09 15:22:00,55.0,35.0,30.28,SW,221,0.0,1.0,47,0.00,,,0.00,,2013-11-09 20:22:00,
2013-11-09 15:42:00,56.0,34.0,30.29,SW,236,1.0,4.0,43,0.00,,,0.00,,2013-11-09 20:42:00,
2013-11-09 15:52:00,57.0,35.0,30.27,SW,236,0.0,2.0,44,0.00,,,0.00,,2013-11-09 20:52:00,
2013-11-09 16:22:00,56.0,35.0,30.26,SW,236,0.0,1.0,45,0.00,,,0.00,,2013-11-09 21:22:00,
2013-11-09 16:54:00,56.0,36.0,30.23,North,0,0.0,2.0,46,0.00,,,5.80,,2013-11-09 21:54:00,
2013-11-09 17:24:00,56.0,37.0,30.26,WNW,286,0.0,0.0,48,0.00,,,0.00,,2013-11-09 22:24:00,
2013-11-09 17:43:00,55.0,36.0,30.26,WNW,286,0.0,0.0,48,0.00,,,0.00,,2013-11-09 22:43:00,
2013-11-09 17:54:00,55.0,36.0,30.26,WNW,286,0.0,0.0,49,0.00,,,0.00,,2013-11-09 22:54:00,
2013-11-09 18:22:00,54.0,36.0,30.27,WNW,286,0.0,0.0,50,0.00,,,0.00,,2013-11-09 23:22:00,
2013-11-09 18:53:00,53.0,35.0,30.26,WNW,286,0.0,0.0,50,0.00,,,0.00,,2013-11-09 23:53:00,
2013-11-09 19:12:00,53.0,35.0,30.27,WNW,286,0.0,0.0,51,0.00,,,0.00,,2013-11-10 00:12:00,
2013-11-09 19:22:00,52.0,35.0,30.29,WNW,286,0.0,0.0,53,0.00,,,0.00,,2013-11-10 00:22:00,
2013-11-09 19:52:00,51.0,34.0,30.30,WNW,286,0.0,0.0,53,0.00,,,0.00,,2013-11-10 00:52:00,
2013-11-09 20:22:00,51.0,35.0,30.29,WNW,286,0.0,0.0,54,0.00,,,0.00,,2013-11-10 01:22:00,
2013-11-09 20:42:00,51.0,35.0,30.29,WNW,286,0.0,0.0,55,0.00,,,0.00,,2013-11-10 01:42:00,
2013-11-09 20:52:00,50.0,34.0,30.29,WNW,286,0.0,0.0,55,0.00,,,0.00,,2013-11-10 01:52:00,
2013-11-09 21:22:00,50.0,35.0,30.29,WNW,286,0.0,0.0,57,0.00,,,0.00,,2013-11-10 02:22:00,
2013-11-09 21:52:00,49.0,36.0,30.30,WNW,286,0.0,0.0,61,0.00,,,0.00,,2013-11-10 02:52:00,
2013-11-09 22:22:00,48.0,37.0,30.29,WNW,286,0.0,0.0,65,0.00,,,0.00,,2013-11-10 03:22:00,
2013-11-09 22:44:00,47.0,36.0,30.29,WNW,286,0.0,0.0,66,0.00,,,0.00,,2013-11-10 03:44:00,
2013-11-09 22:54:00,46.0,36.0,30.29,WNW,286,0.0,0.0,69,0.00,,,0.00,,2013-11-10 03:54:00,
2013-11-09 23:02:00,-999.0,-99.9,30.30,WNW,286,0.0,0.0,-999,-99.99,,,-99.99,,2013-11-10 04:02:00,
2013-11-09 23:23:00,45.0,37.0,30.29,WNW,286,0.0,0.0,72,0.00,,,0.00,,2013-11-10 04:23:00,
2013-11-09 23:52:00,44.0,36.0,30.29,WNW,286,0.0,0.0,74,0.00,,,0.00,,2013-11-10 04:52:00,